Temperature
13 13 13 13 13 13 13 12 12 12 12 12 12 12 12 11 11 11 11 11 11 11 10 10 10 10 10 9 9 9 9 9 9 9 9 9 9 9 9 9 9 9 9
13 13 13 13 12 12 12 12 12 12 12 12 12 12 11 11 11 11 10 10 10 10 10 10 10 9 9 9 9 9 9 9 9 8 8 8 8 8 8 8 8 8 8
13 13 12 12 12 12 12 12 12 12 12 11 11 11 11 11 11 10 10 10 9 9 9 9 9 9 8 8 8 8 8 8 8 8 8 8 8 8 7 7 7 7 8
12 12 12 12 12 12 12 11 11 11 11 11 11 11 10 10 10 10 9 9 9 9 9 9 9 8 8 8 8 8 8 8 7 7 7 7 7 7 7 7 7 7 7
12 12 12 12 11 11 11 11 11 11 11 11 10 10 10 10 9 9 9 8 8 8 8 8 8 8 8 8 7 7 7 7 7 7 7 7 6 6 6 6 6 6 6
12 11 11 11 11 11 11 11 11 10 10 10 10 10 9 9 9 8 8 8 8 8 7 7 7 7 7 7 7 7 7 6 6 6 6 6 6 5 5 6 6 6 6
11 11 11 11 11 11 10 10 10 10 10 9 9 8 8 8 8 8 7 7 7 7 7 7 7 6 6 6 6 6 6 6 6 6 5 5 5 5 5 5 5 5 6
11 11 10 10 10 10 10 10 10 9 9 8 7 7 7 7 7 7 7 7 7 7 6 6 6 6 6 6 6 6 6 5 5 5 5 5 5 5 5 5 5 5 5
10 10 10 10 10 10 9 9 9 9 8 8 7 6 6 7 6 7 7 6 6 6 6 6 6 6 5 5 5 5 5 5 5 5 5 4 4 4 4 4 5 5 5
10 10 10 9 9 9 9 9 8 8 7 7 7 6 6 6 5 5 6 6 6 6 5 5 5 5 5 5 5 5 5 5 4 4 4 4 4 4 4 4 4 4 4
9 9 9 9 9 9 8 8 8 7 7 7 6 6 6 5 5 4 5 5 5 5 5 5 5 5 5 4 4 4 4 4 4 3 3 3 4 4 4 4 4 4 4
9 9 9 8 8 8 8 8 7 7 7 6 6 6 5 5 4 4 4 4 4 5 5 4 4 4 4 4 4 4 4 4 3 3 3 3 3 3 3 3 3 4 4
9 9 9 8 8 8 7 7 7 7 6 6 6 5 5 4 4 4 3 3 3 4 4 4 4 3 3 3 3 3 3 3 3 3 3 3 3 3 3 3 3 3 3
9 9 8 8 7 7 7 7 6 6 6 5 5 5 4 4 4 3 3 3 2 3 3 3 3 3 3 3 3 3 3 3 3 3 3 3 3 3 3 3 3 3 3
8 8 8 7 7 7 6 6 6 5 5 5 4 4 4 4 3 3 3 2 2 1 2 3 3 3 3 3 3 3 3 3 3 3 2 2 2 2 2 2 3 3 3
8 8 7 7 7 6 6 6 5 5 5 4 4 4 3 3 3 3 3 2 2 1 1 2 2 2 2 2 2 2 2 2 3 2 2 2 2 2 2 2 3 3 3
7 7 7 7 6 6 5 5 5 4 4 4 4 3 3 3 2 2 2 2 1 1 1 1 2 2 2 2 2 2 2 2 2 2 2 2 2 2 2 2 2 3 3
7 7 6 6 6 5 5 4 4 4 4 3 3 3 3 2 2 2 2 1 1 1 1 1 1 2 2 2 2 2 2 2 2 2 2 2 2 2 2 2 2 2 2
6 6 6 5 5 5 4 4 4 3 3 3 3 2 2 2 2 2 1 1 1 1 1 1 1 1 1 1 1 1 2 1 1 1 1 2 2 1 2 2 2 2 2
6 5 5 5 4 4 4 3 3 3 2 2 2 2 2 2 2 1 1 1 1 1 1 0 0 0 0 1 1 1 1 1 1 1 1 1 1 1 1 1 1 1 2
5 5 5 4 4 3 3 3 2 2 2 2 2 2 2 2 1 1 1 1 1 0 0 0 0 -0 0 0 0 0 0 0 1 1 1 1 1 1 1 1 1 1 1
4 4 4 3 3 3 3 2 2 2 2 2 1 1 1 1 1 1 1 1 0 0 -0 -0 -0 -0 -0 -0 -0 -1 -1 -0 -0 0 0 0 0 0 1 1 1 1 1
4 3 3 3 3 3 2 2 1 1 1 1 1 1 1 1 1 1 0 0 0 0 -0 -1 -1 -1 -1 -1 -1 -1 -1 -1 -1 -0 -0 0 0 0 0 1 1 1 1
3 3 3 2 2 2 2 1 1 1 1 1 1 1 1 0 0 0 0 0 0 -0 -0 -1 -1 -1 -1 -1 -1 -1 -1 -1 -1 -1 -1 -1 -0 -0 0 0 1 1 1
2 2 2 2 2 1 1 1 1 0 0 0 0 0 0 0 -0 -0 -0 -0 -0 -0 -0 -0 -0 -1 -1 -1 -1 -1 -1 -1 -1 -1 -1 -1 -1 -1 -0 -0 0 0 0
2 2 1 1 1 1 1 0 0 -0 0 0 0 -0 -0 -0 -0 -0 -1 -1 -1 -1 -1 -0 -0 -0 -1 -1 -1 -1 -1 -1 -2 -2 -1 -1 -1 -1 -1 -0 -0 -0 -0
Wind_Speed
4 4 4 4 4 3 3 3 3 3 3 4 3 3 3 4 3 3 4 6 8 8 9 10 11 11 12 12 12 12 13 13 14 14 14 15 15 16 16 16 17 18 18
4 4 4 4 3 3 3 3 3 2 2 3 3 3 3 3 3 3 3 4 5 7 9 10 11 12 12 13 13 13 13 14 14 15 15 15 16 16 17 17 18 19 19
5 4 4 3 3 3 3 2 2 2 2 2 2 3 3 3 3 3 4 4 4 5 7 9 11 12 13 14 14 14 14 15 15 15 16 16 17 17 17 18 18 19 20
5 4 3 3 3 2 2 2 2 2 2 2 2 2 2 2 3 3 3 4 5 6 7 8 10 12 13 14 15 15 15 16 16 16 17 17 17 18 18 19 19 19 19
5 4 3 3 2 2 2 2 2 2 2 2 2 3 3 2 2 3 3 4 5 7 8 8 10 11 13 14 15 16 16 17 17 17 17 18 18 18 19 19 19 20 20
5 4 4 3 2 2 2 1 2 2 2 2 3 3 3 3 3 3 3 4 5 7 8 9 9 10 12 13 15 16 17 18 18 18 18 18 18 19 20 20 20 21 21
5 4 3 2 2 1 1 1 1 2 3 2 2 3 3 3 3 3 4 5 6 7 8 9 9 10 10 12 13 16 17 19 20 20 20 19 19 20 21 21 21 21 21
4 3 3 2 1 1 1 1 1 1 2 3 2 3 3 3 2 4 4 5 6 7 8 9 10 10 11 10 11 15 18 19 21 21 21 20 20 21 21 21 22 22 22
4 3 3 2 1 1 1 1 1 1 1 2 3 2 3 3 6 4 5 5 6 7 8 9 10 11 12 11 11 13 17 19 21 21 22 22 22 22 22 22 22 22 22
4 3 3 2 1 1 0 0 1 1 1 2 2 2 3 3 4 5 5 5 8 8 9 9 10 11 11 11 12 14 18 19 20 21 22 23 23 23 23 23 22 22 22
4 3 3 2 1 1 0 0 1 1 1 2 2 2 3 3 5 5 7 9 8 8 8 9 9 9 11 11 12 14 18 20 20 21 22 23 23 24 24 23 23 22 22
3 3 3 2 1 1 0 0 1 1 2 2 2 2 3 3 4 5 7 10 10 9 10 8 8 9 10 12 13 16 20 20 20 21 22 22 23 23 23 23 23 23 22
4 4 3 2 1 1 1 1 1 1 2 2 2 3 3 3 4 5 7 8 10 10 9 7 8 9 10 12 13 18 19 19 20 21 21 22 22 22 23 23 23 23 23
4 4 3 3 2 2 2 1 1 1 2 2 3 3 3 4 4 5 5 7 9 9 9 10 9 8 10 12 14 18 17 19 20 21 21 22 22 22 22 22 22 22 22
4 4 4 3 3 2 2 2 2 2 2 3 3 4 4 4 4 5 5 6 6 9 11 10 8 10 12 13 15 16 16 19 21 21 21 21 21 21 21 21 21 21 21
4 4 4 3 3 2 2 2 2 2 3 3 3 4 4 4 4 4 5 6 7 8 9 9 11 12 13 13 16 16 16 20 19 19 20 21 21 20 20 21 20 20 20
5 4 4 4 3 3 3 3 3 3 4 4 4 5 5 6 5 5 5 6 7 8 11 11 11 12 14 14 14 14 15 15 15 17 19 20 20 20 20 20 20 19 19
4 4 4 4 3 3 3 3 3 4 4 5 5 5 6 5 6 6 6 7 7 8 10 13 12 11 13 14 14 14 14 13 14 16 18 19 19 19 19 19 18 18 18
4 4 4 4 3 4 4 4 4 4 5 5 5 6 6 6 7 7 7 8 7 8 9 10 12 11 11 11 13 13 13 12 13 14 16 16 17 18 17 17 17 18 18
4 4 4 4 4 4 4 4 4 5 5 5 6 6 7 7 8 8 7 8 8 9 9 9 10 10 10 11 11 11 12 12 11 11 12 14 15 15 15 15 16 17 17
3 3 3 3 3 3 4 4 4 5 5 6 6 6 7 8 9 8 8 8 9 8 9 9 9 10 10 10 10 10 12 12 12 8 10 10 10 10 11 12 13 16 17
2 2 3 3 3 3 4 5 4 5 5 6 6 6 7 7 8 10 12 12 11 10 10 9 9 10 12 12 11 10 11 11 9 8 9 10 9 9 9 9 13 16 16
2 2 2 3 3 3 3 4 5 5 5 6 6 6 6 6 8 8 10 11 11 11 12 11 11 11 12 12 12 12 11 11 11 10 9 8 8 8 9 10 14 15 15
2 2 2 2 3 3 3 4 5 5 6 6 6 6 7 7 7 8 9 9 9 9 10 9 10 11 11 11 11 10 11 11 10 8 7 6 8 8 8 8 12 14 15
1 1 2 2 2 3 3 5 5 4 5 6 6 6 7 7 9 10 9 9 10 9 9 11 13 13 14 14 11 8 8 7 8 7 5 5 6 8 7 6 8 12 14
1 1 1 2 2 3 4 4 5 4 5 5 5 6 7 8 10 10 8 9 10 10 10 10 10 11 10 9 9 7 6 6 7 6 5 5 6 6 5 5 6 8 10
Wind_Direction
110 103 93 84 74 67 64 57 54 50 47 43 41 35 27 22 18 13 26 25 13 6 359 354 350 346 343 338 334 332 328 325 322 319 316 314 311 310 307 304 300 293 291
113 108 98 83 72 61 53 48 45 43 39 37 31 24 14 9 4 359 358 13 18 5 356 350 347 343 338 335 332 328 324 323 320 317 314 312 311 307 304 301 300 296 290
116 110 100 89 72 63 59 51 47 36 32 25 13 5 0 356 352 351 351 349 351 357 351 345 341 338 336 333 330 329 325 321 318 316 314 311 309 307 306 305 300 298 293
117 110 101 89 75 66 58 48 33 25 13 1 351 344 337 339 338 338 347 348 343 339 340 340 334 331 331 330 328 325 323 321 317 314 312 311 309 307 305 303 303 300 298
119 111 101 93 83 69 56 42 25 7 355 346 337 325 319 312 320 317 330 340 341 334 330 331 327 324 326 326 326 324 322 320 317 314 312 310 309 306 305 303 302 300 298
122 113 106 99 88 77 55 41 33 14 352 333 320 319 308 300 301 309 311 323 330 328 328 326 324 324 321 322 323 323 321 319 317 315 312 310 308 307 304 303 301 300 297
127 120 115 108 91 79 54 35 31 20 3 340 314 317 296 272 287 299 303 312 320 322 324 323 323 320 318 317 318 320 320 319 317 315 313 310 306 304 303 302 301 300 297
133 131 127 123 106 90 68 40 20 2 358 350 325 314 311 286 280 292 290 298 308 315 320 320 318 317 314 314 315 315 317 317 316 314 313 311 308 304 302 302 301 299 298
139 135 133 126 114 101 82 27 3 345 340 348 351 324 312 308 316 281 288 295 307 312 315 317 313 313 313 311 312 313 316 315 314 313 313 312 309 306 304 303 302 300 298
146 139 136 131 124 116 124 336 319 302 289 310 337 330 311 305 300 303 298 301 308 308 312 312 310 311 311 310 308 309 314 313 311 311 312 312 310 308 307 304 302 301 300
153 149 145 141 134 129 138 290 292 284 285 285 297 298 294 289 281 287 300 308 310 306 309 307 306 311 312 311 310 313 314 312 310 311 311 311 310 309 307 307 304 302 301
162 160 162 159 156 146 181 266 274 274 279 279 278 281 288 290 297 294 295 305 308 309 309 303 305 310 313 313 311 314 312 310 310 310 310 310 309 308 308 308 306 304 302
176 180 177 182 179 183 206 231 253 268 273 274 276 283 284 285 288 290 294 302 304 305 305 304 308 309 314 315 312 317 310 309 310 310 310 310 310 309 309 308 306 305 303
183 182 187 193 197 202 211 223 244 262 271 272 277 280 283 287 285 286 291 301 306 304 304 308 312 311 319 316 314 314 310 310 311 311 311 311 311 310 309 308 307 306 306
176 181 187 193 200 206 216 231 243 259 269 274 275 278 283 286 285 284 283 285 292 302 306 309 314 313 319 314 313 313 311 311 310 310 311 312 313 312 313 310 307 306 306
174 180 187 193 200 207 218 231 247 260 268 274 279 279 285 289 287 283 280 279 276 282 289 299 306 309 312 310 311 311 309 308 305 309 313 314 314 314 315 316 311 307 306
179 183 189 195 202 212 224 234 248 261 266 274 278 280 284 289 289 288 286 281 279 278 284 294 300 308 310 310 312 313 312 311 309 309 313 315 315 316 317 318 318 316 313
184 186 192 197 206 219 231 240 248 259 265 273 278 280 284 290 290 291 289 287 285 282 285 293 300 307 309 311 311 311 314 312 310 310 313 314 315 318 319 320 321 322 322
185 189 197 202 213 226 236 244 251 259 266 273 278 281 284 288 291 293 292 290 289 288 286 289 296 303 306 311 314 313 314 314 313 312 313 314 316 320 322 323 325 328 327
188 197 205 211 223 233 240 249 259 267 274 278 280 280 281 284 290 295 293 292 294 293 294 295 297 304 307 313 316 317 318 319 317 316 317 317 320 322 324 326 329 331 331
192 202 209 219 230 239 246 258 268 273 278 282 283 283 284 288 292 294 293 295 296 295 298 298 300 304 310 318 318 315 313 316 316 317 319 320 323 324 328 331 334 336 337
188 195 209 224 238 249 265 270 280 273 277 279 284 289 290 286 289 291 293 295 294 294 297 297 299 303 307 311 312 313 314 317 314 322 320 315 321 323 327 328 334 337 341
188 202 218 233 250 267 275 273 281 285 279 281 283 287 291 294 296 294 293 291 288 288 288 289 292 298 302 308 309 309 310 309 304 310 315 306 318 319 324 329 336 340 345
193 215 235 246 262 277 287 288 294 284 281 284 285 288 292 296 299 303 301 297 295 294 292 289 290 296 299 304 303 300 301 302 299 303 315 301 313 315 318 324 337 344 348
205 228 243 254 266 287 302 303 306 293 289 291 292 292 292 295 305 310 305 302 302 302 298 293 294 297 301 304 307 308 309 311 308 311 327 310 310 315 311 317 336 344 348
212 242 267 279 282 294 308 310 308 295 295 302 302 299 296 304 311 311 304 301 302 306 309 308 305 305 305 305 308 303 302 306 308 306 327 320 312 324 319 315 331 341 342
Height
1548 1548 1548 1548 1548 1547 1547 1546 1546 1545 1544 1543 1542 1541 1540 1538 1537 1535 1533 1531 1529 1527 1525 1523 1521 1519 1517 1514 1512 1510 1508 1506 1503 1501 1499 1497 1495 1493 1491 1489 1487 1485 1484
1547 1547 1547 1547 1547 1547 1546 1546 1545 1544 1543 1542 1541 1540 1538 1537 1535 1533 1531 1529 1527 1525 1523 1520 1518 1516 1513 1511 1509 1506 1504 1502 1499 1497 1495 1492 1490 1488 1486 1484 1482 1480 1478
1546 1547 1546 1546 1546 1546 1545 1545 1544 1543 1541 1540 1539 1538 1536 1535 1533 1531 1529 1527 1525 1522 1520 1517 1515 1513 1510 1508 1505 1503 1500 1498 1495 1493 1490 1488 1485 1483 1481 1478 1476 1474 1472
1545 1546 1546 1545 1545 1545 1544 1543 1542 1541 1540 1539 1537 1536 1534 1533 1531 1529 1527 1525 1522 1520 1517 1514 1512 1509 1506 1504 1501 1499 1496 1493 1491 1488 1486 1483 1480 1478 1475 1473 1471 1469 1466
1544 1545 1545 1544 1544 1544 1543 1542 1541 1540 1538 1537 1535 1534 1532 1530 1529 1527 1525 1523 1520 1517 1515 1512 1509 1506 1503 1500 1497 1495 1492 1489 1486 1484 1481 1478 1475 1473 1470 1468 1465 1463 1461
1543 1543 1543 1543 1543 1542 1542 1541 1539 1538 1537 1535 1533 1531 1529 1528 1526 1524 1523 1520 1518 1515 1512 1509 1506 1503 1499 1496 1493 1490 1487 1484 1481 1479 1476 1473 1470 1467 1465 1462 1460 1457 1455
1542 1542 1542 1542 1541 1541 1540 1539 1538 1536 1535 1533 1531 1529 1527 1525 1524 1522 1520 1518 1515 1513 1509 1506 1503 1500 1496 1493 1489 1486 1483 1480 1477 1474 1471 1468 1465 1462 1460 1457 1454 1451 1449
1540 1540 1540 1540 1540 1539 1538 1537 1536 1534 1533 1531 1530 1528 1526 1525 1522 1520 1517 1515 1512 1510 1507 1503 1500 1497 1493 1489 1486 1482 1479 1476 1473 1469 1466 1463 1460 1457 1454 1452 1449 1446 1443
1538 1539 1539 1538 1538 1537 1536 1535 1534 1533 1531 1530 1529 1529 1527 1524 1519 1517 1515 1512 1510 1507 1504 1501 1497 1493 1490 1486 1482 1478 1475 1471 1468 1465 1462 1458 1455 1452 1449 1446 1443 1440 1437
1536 1536 1536 1536 1536 1535 1534 1533 1532 1531 1530 1528 1527 1526 1525 1523 1520 1515 1512 1510 1508 1504 1501 1497 1494 1490 1486 1482 1478 1474 1471 1467 1463 1460 1457 1453 1450 1447 1443 1440 1437 1434 1431
1534 1534 1534 1534 1533 1533 1532 1531 1530 1529 1527 1526 1525 1524 1522 1520 1518 1515 1510 1506 1504 1501 1497 1494 1490 1486 1483 1479 1475 1471 1467 1462 1459 1455 1451 1448 1444 1441 1438 1434 1431 1428 1425
1531 1531 1531 1531 1531 1530 1529 1529 1527 1526 1525 1524 1522 1521 1519 1518 1516 1513 1509 1503 1500 1496 1493 1490 1487 1483 1479 1475 1471 1467 1462 1458 1454 1450 1446 1443 1439 1436 1432 1429 1425 1422 1419
1528 1528 1528 1528 1528 1527 1527 1526 1525 1524 1522 1521 1520 1518 1516 1515 1513 1510 1507 1502 1497 1492 1489 1487 1483 1479 1475 1471 1466 1462 1458 1454 1449 1445 1442 1438 1434 1430 1427 1423 1420 1417 1413
1525 1525 1525 1525 1525 1525 1524 1523 1522 1521 1519 1518 1517 1515 1513 1511 1509 1507 1504 1500 1494 1489 1487 1484 1480 1476 1471 1467 1462 1458 1453 1449 1445 1441 1437 1433 1429 1425 1421 1418 1414 1411 1407
1521 1522 1522 1522 1522 1521 1521 1520 1519 1518 1516 1515 1513 1512 1510 1508 1506 1504 1501 1498 1495 1489 1482 1479 1476 1472 1468 1463 1458 1454 1449 1445 1440 1436 1432 1428 1424 1420 1416 1412 1409 1405 1402
1518 1518 1518 1519 1518 1518 1517 1517 1516 1514 1513 1512 1510 1508 1507 1505 1502 1500 1498 1495 1492 1488 1482 1476 1472 1468 1464 1459 1455 1450 1446 1441 1436 1432 1428 1424 1419 1415 1411 1407 1403 1400 1397
1514 1514 1515 1515 1515 1514 1514 1513 1512 1511 1510 1508 1507 1505 1503 1501 1499 1496 1494 1491 1488 1485 1479 1473 1469 1465 1460 1456 1451 1447 1442 1437 1432 1428 1423 1419 1415 1411 1406 1402 1398 1394 1391
1510 1511 1511 1511 1511 1511 1510 1509 1508 1507 1506 1505 1503 1501 1500 1497 1495 1492 1490 1487 1484 1481 1477 1470 1465 1461 1457 1452 1448 1443 1438 1433 1429 1424 1419 1415 1411 1406 1402 1398 1394 1390 1386
1506 1507 1507 1507 1507 1507 1506 1505 1504 1503 1502 1501 1500 1498 1496 1494 1491 1489 1486 1483 1480 1477 1473 1468 1462 1458 1453 1449 1444 1439 1435 1430 1425 1420 1416 1411 1407 1403 1398 1394 1390 1386 1382
1502 1503 1503 1503 1503 1503 1503 1502 1501 1500 1499 1497 1496 1494 1492 1490 1487 1485 1482 1479 1476 1472 1469 1464 1459 1455 1451 1446 1442 1436 1430 1426 1421 1417 1413 1408 1404 1400 1395 1391 1387 1383 1379
1498 1499 1499 1499 1499 1499 1499 1498 1497 1496 1495 1494 1492 1490 1488 1486 1484 1481 1478 1475 1472 1469 1465 1461 1456 1452 1447 1443 1439 1433 1428 1423 1418 1414 1409 1405 1401 1397 1392 1388 1384 1380 1376
1494 1495 1495 1495 1495 1495 1495 1494 1494 1493 1491 1490 1488 1486 1484 1482 1479 1477 1474 1471 1469 1465 1461 1457 1453 1449 1445 1441 1436 1431 1426 1421 1415 1412 1407 1403 1399 1394 1390 1386 1382 1378 1374
1491 1491 1492 1492 1492 1491 1491 1491 1490 1489 1488 1486 1484 1482 1480 1478 1476 1473 1470 1467 1464 1461 1458 1455 1450 1446 1442 1438 1434 1429 1424 1420 1415 1410 1406 1400 1397 1393 1389 1385 1381 1377 1373
1488 1488 1488 1488 1488 1488 1487 1487 1486 1485 1484 1482 1481 1479 1477 1474 1472 1469 1466 1463 1460 1457 1454 1450 1447 1443 1439 1435 1431 1427 1422 1417 1413 1409 1405 1400 1395 1392 1388 1384 1381 1377 1373
1485 1485 1485 1485 1484 1484 1484 1483 1483 1481 1480 1478 1477 1475 1473 1471 1468 1466 1463 1459 1456 1453 1450 1447 1443 1439 1435 1432 1428 1424 1419 1415 1410 1407 1404 1399 1394 1390 1387 1383 1380 1377 1373
1481 1482 1482 1482 1481 1481 1480 1480 1479 1478 1476 1475 1473 1471 1469 1467 1465 1462 1459 1456 1452 1449 1446 1443 1439 1436 1432 1428 1425 1421 1417 1413 1409 1405 1402 1399 1394 1390 1386 1383 1380 1377 1373